YAOGAN-29

Last updated on Tue Oct 15 2024 00:02:10 GMT+0000 (Coordinated Universal Time)

1 41038U 15069A 24288.55968786 .00001557 00000+0 20288-3 0 9995 2 41038 98.0530 303.6772 0001511 151.4478 208.6817 14.82045886480144
UTC large
Height (km)
Speed (km/s)
/
Latitude / Longitude
Inclination (degrees)
Orbital Period (minutes)
Azimuth
Elevation
Range (km)
Doppler Factor

Next 0 passes for location: London (51.5072 / 0.1276)

Sorry there are no passes over London.